Back to catalog

FENGYUN 1C DEB

AliveSSO
NORAD 33720·DEBRIS·🇨🇳 China

Launched May 10, 1999 from Taiyuan Satellite Launch Center

Loading…

Next Passes (next 24 hours)

TLE

FreshSource: Space-Track

Epoch: Sep 11, 2026, 05:22 UTC

1 33720U 99025DHH 26254.22412263  .00001117  00000-0  33930-3 0  9992
2 33720  98.2502 252.8299 0078861 324.2438  35.3486 14.42280373972827

Track FENGYUN 1C DEB in real time with AllMySat

Download on the App Store